When you browse on this site, cookies collect data to enhance your experience and personalize the content and advertising you see.
Visit our Privacy Policy to learn more. By continuing to use the site, you agree to this use of cookies and data.
  • In Czech Republic
  • List of Countries
  • For 7 days
  • Water Temperature
  • Satellite Maps
  • Weather Map
  • Weather Widgets
  • user-avatar
    Login

    Hourly Weather Sala

    Today, 25 June, Tuesday

    Time Temperature Precipitation Wind Pressure Humidity
    00:00 +20°C° 0 mm 1 mps 758 mmHg 96%
    01:00 +19°C° 0 mm 1 mps 758 mmHg 96%
    02:00 +19°C° 0 mm 1 mps 758 mmHg 95%
    03:00 +19°C° 0 mm 1 mps 758 mmHg 95%
    04:00 +19°C° 0 mm 1 mps 758 mmHg 95%
    05:00 +20°C° 0 mm 1 mps 758 mmHg 95%
    06:00 +18°C° 0 mm 0 mps 758 mmHg 96%
    07:00 +22°C° 0 mm 1 mps 758 mmHg 83%
    08:00 +24°C° 0 mm 1 mps 758 mmHg 71%
    09:00 +27°C° 0 mm 1 mps 758 mmHg 58%
    10:00 +29°C° 0 mm 2 mps 758 mmHg 52%
    11:00 +30°C° 0 mm 3 mps 758 mmHg 46%
    12:00 +33°C° 0 mm 4 mps 757 mmHg 40%
    13:00 +33°C° 0 mm 5 mps 757 mmHg 42%
    14:00 +33°C° 0 mm 5 mps 757 mmHg 44%
    15:00 +32°C° 0 mm 5 mps 756 mmHg 46%
    16:00 +30°C° 0 mm 5 mps 757 mmHg 51%
    17:00 +29°C° 0 mm 4 mps 757 mmHg 55%
    18:00 +27°C° 0 mm 4 mps 757 mmHg 60%
    19:00 +25°C° 0 mm 3 mps 758 mmHg 71%
    20:00 +23°C° 0 mm 2 mps 758 mmHg 82%
    21:00 +19°C° 0 mm 0 mps 759 mmHg 94%
    22:00 +19°C° 0 mm 0 mps 759 mmHg 94%
    23:00 +19°C° 0 mm 0 mps 759 mmHg 94%

    Tomorrow, 26 June, Wednesday

    Time Temperature Precipitation Wind Pressure Humidity
    00:00 +18°C° 0 mm 0 mps 759 mmHg 94%
    01:00 +18°C° 0 mm 0 mps 759 mmHg 94%
    02:00 +20°C° 0 mm 1 mps 759 mmHg 94%
    03:00 +20°C° 0 mm 1 mps 758 mmHg 95%
    04:00 +20°C° 0 mm 1 mps 759 mmHg 95%
    05:00 +20°C° 0 mm 1 mps 759 mmHg 95%
    06:00 +21°C° 0 mm 1 mps 759 mmHg 96%
    07:00 +22°C° 0 mm 1 mps 759 mmHg 86%
    08:00 +24°C° 0 mm 1 mps 759 mmHg 76%
    09:00 +26°C° 0 mm 1 mps 759 mmHg 67%
    10:00 +28°C° 0 mm 2 mps 759 mmHg 59%
    11:00 +30°C° 0 mm 3 mps 759 mmHg 51%
    12:00 +33°C° 0 mm 4 mps 759 mmHg 44%
    13:00 +32°C° 0 mm 4 mps 758 mmHg 45%
    14:00 +32°C° 0 mm 5 mps 758 mmHg 47%
    15:00 +32°C° 0 mm 5 mps 758 mmHg 49%
    16:00 +29°C° 0 mm 5 mps 758 mmHg 54%
    17:00 +28°C° 0 mm 5 mps 757 mmHg 59%
    18:00 +26°C° 0 mm 4 mps 757 mmHg 64%
    19:00 +25°C° 0 mm 3 mps 758 mmHg 73%
    20:00 +23°C° 0 mm 2 mps 759 mmHg 82%
    21:00 +22°C° 0 mm 1 mps 759 mmHg 90%
    22:00 +22°C° 0 mm 1 mps 759 mmHg 91%
    23:00 +22°C° 0 mm 1 mps 759 mmHg 92%

    Day after tomorrow, 27 June, Thursday

    Time Temperature Precipitation Wind Pressure Humidity
    00:00 +21°C° 0 mm 1 mps 759 mmHg 93%
    01:00 +21°C° 0 mm 1 mps 759 mmHg 94%
    02:00 +20°C° 0 mm 2 mps 759 mmHg 96%
    03:00 +19°C° 0 mm 2 mps 758 mmHg 97%
    04:00 +20°C° 0 mm 2 mps 758 mmHg 96%
    05:00 +20°C° 0 mm 2 mps 758 mmHg 95%
    06:00 +21°C° 0 mm 3 mps 759 mmHg 94%
    07:00 +22°C° 0 mm 3 mps 759 mmHg 87%
    08:00 +24°C° 0 mm 3 mps 759 mmHg 80%
    09:00 +25°C° 0 mm 3 mps 759 mmHg 74%
    10:00 +26°C° 0 mm 4 mps 759 mmHg 67%
    11:00 +27°C° 0 mm 4 mps 759 mmHg 59%
    12:00 +29°C° 0 mm 5 mps 759 mmHg 52%
    13:00 +29°C° 0 mm 5 mps 758 mmHg 50%
    14:00 +29°C° 0 mm 5 mps 758 mmHg 49%
    15:00 +29°C° 0 mm 5 mps 757 mmHg 47%
    16:00 +28°C° 0 mm 5 mps 757 mmHg 50%
    17:00 +26°C° 0 mm 5 mps 757 mmHg 53%
    18:00 +25°C° 0 mm 5 mps 757 mmHg 56%
    19:00 +22°C° 0 mm 4 mps 758 mmHg 64%
    20:00 +21°C° 0 mm 3 mps 758 mmHg 72%
    21:00 +19°C° 0 mm 2 mps 759 mmHg 80%
    22:00 +19°C° 0 mm 2 mps 759 mmHg 83%
    23:00 +19°C° 0 mm 1 mps 759 mmHg 85%

    28 June, Friday

    Time Temperature Precipitation Wind Pressure Humidity
    00:00 +19°C° 0 mm 1 mps 758 mmHg 87%
    01:00 +19°C° 0 mm 1 mps 758 mmHg 88%
    02:00 +19°C° 0 mm 1 mps 757 mmHg 89%
    03:00 +18°C° 0 mm 1 mps 757 mmHg 89%
    04:00 +19°C° 0 mm 1 mps 757 mmHg 88%
    05:00 +19°C° 0 mm 1 mps 756 mmHg 86%
    06:00 +17°C° 0 mm 0 mps 756 mmHg 85%
    07:00 +21°C° 0 mm 1 mps 756 mmHg 75%
    08:00 +24°C° 0 mm 2 mps 756 mmHg 64%
    09:00 +26°C° 0 mm 2 mps 756 mmHg 54%
    10:00 +27°C° 0 mm 3 mps 756 mmHg 51%
    11:00 +29°C° 0 mm 4 mps 755 mmHg 48%
    12:00 +30°C° 0 mm 4 mps 755 mmHg 45%
    13:00 +30°C° 0 mm 4 mps 755 mmHg 45%
    14:00 +30°C° 0 mm 5 mps 754 mmHg 45%
    15:00 +30°C° 0 mm 5 mps 754 mmHg 46%
    16:00 +28°C° 0 mm 5 mps 754 mmHg 52%
    17:00 +27°C° 0 mm 5 mps 754 mmHg 59%
    18:00 +26°C° 0 mm 5 mps 754 mmHg 65%
    19:00 +23°C° 0 mm 5 mps 755 mmHg 74%
    20:00 +22°C° 0 mm 4 mps 756 mmHg 82%
    21:00 +20°C° 0 mm 4 mps 756 mmHg 90%
    22:00 +20°C° 0 mm 4 mps 756 mmHg 91%
    23:00 +20°C° 0 mm 3 mps 756 mmHg 91%

    29 June, Saturday

    Time Temperature Precipitation Wind Pressure Humidity
    00:00 +19°C° 0 mm 3 mps 756 mmHg 91%
    01:00 +19°C° 0 mm 3 mps 756 mmHg 92%
    02:00 +19°C° 0 mm 3 mps 756 mmHg 93%
    03:00 +18°C° 0 mm 3 mps 755 mmHg 93%
    04:00 +18°C° 0 mm 3 mps 755 mmHg 92%
    05:00 +19°C° 0 mm 3 mps 755 mmHg 91%
    06:00 +19°C° 0 mm 3 mps 755 mmHg 91%
    07:00 +21°C° 0 mm 3 mps 755 mmHg 79%
    08:00 +24°C° 0 mm 3 mps 755 mmHg 68%
    09:00 +27°C° 0 mm 3 mps 755 mmHg 56%
    10:00 +28°C° 0 mm 4 mps 755 mmHg 52%
    11:00 +30°C° 0 mm 4 mps 755 mmHg 47%
    12:00 +33°C° 0 mm 5 mps 755 mmHg 42%
    13:00 +33°C° 0 mm 5 mps 754 mmHg 43%
    14:00 +32°C° 0 mm 5 mps 754 mmHg 45%
    15:00 +30°C° 0 mm 5 mps 753 mmHg 47%
    16:00 +29°C° 0 mm 5 mps 754 mmHg 52%
    17:00 +28°C° 0 mm 5 mps 754 mmHg 57%
    18:00 +26°C° 0 mm 5 mps 754 mmHg 62%
    19:00 +25°C° 0 mm 5 mps 755 mmHg 70%
    20:00 +22°C° 0 mm 5 mps 756 mmHg 78%
    21:00 +21°C° 0 mm 5 mps 756 mmHg 86%
    22:00 +21°C° 0 mm 5 mps 757 mmHg 88%
    23:00 +20°C° 0 mm 4 mps 757 mmHg 90%

    30 June, Sunday

    Time Temperature Precipitation Wind Pressure Humidity
    00:00 +20°C° 0 mm 4 mps 757 mmHg 92%
    01:00 +19°C° 0 mm 4 mps 757 mmHg 93%
    02:00 +19°C° 0 mm 4 mps 756 mmHg 94%
    03:00 +19°C° 0 mm 4 mps 756 mmHg 95%
    04:00 +19°C° 0 mm 4 mps 756 mmHg 93%
    05:00 +19°C° 0 mm 4 mps 757 mmHg 92%
    06:00 +19°C° 0 mm 4 mps 757 mmHg 91%
    07:00 +21°C° 0 mm 4 mps 757 mmHg 80%
    08:00 +23°C° 0 mm 4 mps 757 mmHg 68%
    09:00 +26°C° 0 mm 4 mps 757 mmHg 56%
    10:00 +28°C° 0 mm 5 mps 757 mmHg 52%
    11:00 +29°C° 0 mm 5 mps 757 mmHg 49%
    12:00 +30°C° 0 mm 6 mps 757 mmHg 45%
    13:00 +30°C° 0 mm 6 mps 757 mmHg 47%
    14:00 +29°C° 0 mm 6 mps 757 mmHg 49%
    15:00 +29°C° 0 mm 5 mps 757 mmHg 51%
    16:00 +28°C° 0 mm 5 mps 757 mmHg 56%
    17:00 +26°C° 0 mm 5 mps 757 mmHg 62%
    18:00 +25°C° 0 mm 5 mps 757 mmHg 68%
    19:00 +23°C° 0 mm 4 mps 758 mmHg 75%
    20:00 +21°C° 0 mm 3 mps 758 mmHg 82%
    21:00 +20°C° 0 mm 3 mps 759 mmHg 90%
    22:00 +20°C° 0 mm 2 mps 759 mmHg 89%
    23:00 +19°C° 0 mm 2 mps 759 mmHg 89%
    Show more